Temp
10 10 10 11 11 11 11 11 11 11 10 10 10 10 10 11 11 10 10 9 9 9 9 9 8 8 8 7 7 7 7 7 7 6 6 6 6 5 5 5 5 4 4
11 10 10 10 10 11 11 11 11 11 11 11 11 11 10 10 11 10 10 9 9 9 9 9 8 8 8 7 7 7 7 7 7 7 7 7 6 5 5 4 4 4 3
10 10 10 10 10 10 10 11 11 11 11 11 11 11 11 11 11 10 10 10 10 9 9 9 8 8 8 8 7 7 7 7 7 7 6 6 6 5 5 4 3 3 3
10 10 10 9 9 9 10 10 10 10 10 10 11 11 11 11 11 11 10 10 9 9 9 9 8 8 8 8 8 7 7 7 7 6 6 5 4 4 4 4 3 3 3
9 9 9 9 9 9 9 9 10 10 10 10 10 11 11 11 11 11 10 10 10 9 8 8 8 8 8 8 8 7 7 7 6 6 5 5 4 3 3 4 3 3 3
9 9 9 9 9 9 9 9 10 10 10 10 11 11 11 11 11 11 10 10 10 9 9 8 8 8 8 7 7 7 7 7 6 6 5 4 3 3 3 3 3 3 3
9 9 9 9 8 9 9 9 10 10 11 11 11 11 11 11 11 11 10 10 10 9 9 8 8 7 7 7 6 6 6 6 6 5 4 4 3 3 3 3 3 3 3
7 8 8 9 9 8 8 9 9 9 9 10 10 10 10 11 11 11 10 10 10 9 8 7 7 7 7 6 5 5 5 5 3 3 3 3 2 3 2 3 2 2 3
6 7 6 7 8 8 8 8 9 9 9 9 9 10 10 10 11 11 10 10 10 8 8 7 7 7 6 6 5 5 5 4 3 2 2 3 2 2 2 2 2 2 2
7 7 7 7 6 7 7 8 8 8 8 9 9 9 9 10 10 10 10 10 9 8 7 7 7 6 6 5 5 5 4 3 3 2 3 3 2 2 2 2 2 1 2
5 5 5 6 7 7 6 7 7 8 8 8 8 9 9 9 9 10 10 10 9 8 7 6 6 6 6 6 6 4 4 3 3 3 2 2 2 2 2 1 1 1 2
4 4 5 5 5 6 7 7 7 7 7 8 8 8 8 9 9 9 10 10 9 7 6 6 6 6 6 5 5 3 3 2 2 2 2 1 2 1 1 1 1 1 1
2 3 4 4 4 5 5 6 6 6 7 7 8 8 9 8 9 9 10 9 8 7 6 6 6 6 6 5 3 4 2 2 1 1 1 2 1 1 0 0 0 1 1
2 2 3 3 3 3 4 5 5 6 6 7 7 8 9 9 9 9 9 8 6 6 6 6 6 6 6 5 4 3 2 2 1 2 1 1 0 0 0 0 -0 -0 -0
0 1 2 3 3 3 3 4 4 5 6 6 7 8 8 9 9 9 8 7 6 6 6 6 6 6 6 6 4 2 2 2 1 1 1 0 -0 -0 -0 -1 -1 -1 -1
-0 0 1 2 2 3 3 3 4 4 5 6 6 7 8 8 8 7 6 6 6 6 5 5 5 5 5 4 3 3 2 2 1 0 -0 -1 -1 -1 -1 -1 -1 -1 -1
-1 0 1 1 2 2 2 3 4 4 5 5 6 7 7 7 7 6 6 5 5 5 5 5 4 4 5 4 3 2 2 1 0 -1 -0 -1 -1 -2 -2 -3 -2 -2 -2
-3 -2 -0 1 1 2 2 2 3 4 5 5 5 6 6 6 6 5 5 5 5 5 4 4 4 4 4 4 2 1 0 0 -1 -1 -1 -1 -2 -3 -3 -3 -3 -3 -3
-3 -3 -2 -1 1 1 2 2 3 3 4 5 5 5 5 5 5 5 5 5 5 4 4 4 3 4 3 3 0 -1 0 -1 -1 -1 -2 -3 -3 -4 -4 -4 -4 -4 -4
-5 -4 -3 -2 -1 0 1 2 2 3 3 4 5 5 5 5 5 5 4 4 4 4 4 3 3 3 3 0 -1 -1 -1 -1 -2 -2 -3 -4 -4 -4 -4 -5 -4 -4 -4
-5 -5 -5 -3 -2 -1 -1 0 2 3 3 3 3 4 4 5 5 5 4 4 4 3 3 3 3 2 2 0 -1 -1 -2 -2 -2 -3 -4 -5 -5 -5 -5 -5 -5 -5 -5
-5 -5 -5 -5 -4 -2 -2 -0 1 2 2 3 3 3 4 4 4 4 4 4 4 3 3 3 3 2 1 -0 -1 -2 -2 -2 -3 -4 -5 -5 -5 -5 -5 -5 -5 -5 -5
-5 -5 -5 -5 -4 -3 -3 -2 -0 1 2 2 3 3 3 3 3 4 4 4 3 3 3 2 2 0 -0 -1 -1 -1 -2 -3 -4 -5 -6 -5 -6 -6 -6 -5 -5 -5 -5
-5 -5 -5 -5 -5 -4 -3 -3 -2 -0 1 2 3 3 3 3 3 4 4 3 3 2 2 2 2 0 -0 -1 -1 -2 -2 -4 -6 -6 -6 -7 -7 -7 -6 -6 -6 -6 -6
-6 -6 -5 -5 -4 -4 -4 -3 -2 -1 0 1 2 3 3 2 3 3 3 2 1 1 1 0 -1 -1 -1 -1 -2 -2 -4 -6 -6 -6 -7 -7 -7 -7 -7 -6 -6 -6 -6
-6 -6 -5 -5 -4 -5 -4 -4 -3 -2 -1 0 1 1 1 2 2 2 3 2 1 1 -0 -1 -1 -2 -2 -2 -3 -5 -6 -6 -6 -7 -8 -7 -7 -7 -7 -7 -7 -7 -7
Height
3105 3108 3112 3116 3118 3120 3124 3127 3131 3134 3135 3136 3139 3140 3143 3145 3146 3147 3149 3150 3150 3151 3152 3153 3154 3154 3155 3156 3157 3157 3158 3160 3160 3161 3162 3161 3161 3161 3161 3160 3159 3158 3157
3093 3098 3102 3106 3109 3114 3117 3119 3122 3125 3127 3129 3132 3133 3136 3138 3140 3142 3143 3144 3144 3145 3146 3147 3149 3150 3150 3151 3152 3153 3154 3154 3155 3156 3156 3157 3158 3157 3155 3154 3153 3151 3149
3085 3090 3093 3097 3101 3103 3107 3110 3113 3116 3118 3121 3123 3125 3126 3128 3131 3135 3137 3138 3138 3139 3141 3142 3143 3144 3145 3146 3147 3147 3148 3149 3150 3150 3150 3149 3150 3150 3149 3147 3145 3144 3143
3076 3080 3084 3088 3091 3095 3097 3098 3101 3105 3108 3111 3113 3116 3118 3121 3125 3128 3130 3132 3132 3133 3135 3136 3137 3138 3139 3140 3141 3141 3142 3143 3143 3143 3143 3142 3142 3141 3141 3141 3138 3137 3136
3066 3071 3075 3078 3081 3084 3087 3089 3092 3095 3098 3101 3105 3107 3109 3113 3115 3119 3122 3124 3125 3127 3128 3129 3131 3132 3133 3134 3134 3135 3136 3136 3136 3136 3135 3135 3135 3134 3132 3131 3132 3130 3128
3057 3061 3065 3068 3071 3074 3077 3079 3082 3085 3087 3091 3094 3097 3100 3102 3105 3110 3113 3116 3118 3119 3121 3123 3124 3125 3126 3127 3127 3128 3128 3129 3129 3128 3128 3128 3127 3126 3125 3122 3121 3120 3120
3046 3050 3054 3058 3061 3063 3067 3070 3072 3075 3077 3081 3084 3087 3090 3093 3097 3100 3104 3107 3110 3111 3113 3115 3117 3118 3119 3119 3119 3120 3120 3121 3121 3121 3121 3121 3120 3119 3117 3115 3112 3108 3107
3036 3039 3043 3047 3051 3055 3057 3060 3063 3065 3067 3070 3073 3076 3080 3084 3087 3090 3094 3098 3101 3104 3105 3107 3109 3110 3110 3110 3111 3112 3112 3112 3113 3112 3113 3112 3112 3111 3110 3108 3105 3100 3095
3029 3033 3035 3037 3040 3044 3048 3050 3052 3054 3056 3060 3063 3066 3070 3074 3078 3081 3084 3087 3091 3093 3097 3098 3100 3101 3101 3102 3102 3103 3104 3103 3104 3105 3105 3105 3105 3103 3102 3100 3097 3094 3087
3018 3021 3024 3027 3028 3030 3033 3036 3039 3042 3045 3048 3052 3057 3061 3065 3068 3072 3074 3078 3079 3082 3086 3088 3091 3092 3093 3093 3094 3093 3094 3095 3096 3097 3097 3098 3097 3096 3094 3092 3089 3085 3081
3010 3012 3015 3016 3020 3022 3023 3025 3028 3031 3033 3035 3041 3046 3051 3055 3059 3062 3064 3067 3068 3071 3074 3078 3081 3083 3084 3084 3084 3084 3085 3086 3088 3089 3089 3090 3089 3088 3086 3083 3081 3077 3072
3003 3005 3007 3009 3010 3012 3014 3016 3019 3021 3024 3025 3028 3033 3037 3042 3048 3051 3054 3055 3056 3059 3064 3068 3071 3073 3075 3075 3074 3075 3077 3078 3079 3081 3083 3081 3081 3079 3077 3075 3072 3068 3064
2996 2996 2998 3000 3001 3002 3005 3007 3009 3012 3015 3015 3018 3022 3025 3029 3033 3038 3042 3042 3045 3049 3054 3059 3062 3064 3065 3065 3066 3066 3068 3063 3071 3073 3073 3072 3072 3071 3069 3067 3064 3060 3056
2990 2991 2993 2994 2995 2995 2996 2998 3000 3002 3005 3006 3008 3010 3013 3017 3022 3027 3028 3030 3036 3041 3046 3049 3053 3055 3056 3055 3056 3058 3058 3063 3063 3067 3064 3063 3063 3062 3060 3058 3056 3052 3048
2983 2985 2986 2986 2988 2989 2989 2991 2993 2994 2996 2998 3000 3001 3004 3005 3009 3014 3017 3023 3028 3033 3037 3041 3043 3046 3046 3046 3047 3050 3052 3053 3054 3056 3056 3056 3055 3055 3052 3050 3047 3043 3040
2976 2977 2978 2979 2981 2981 2982 2983 2986 2987 2988 2990 2993 2994 2995 2996 3000 3004 3010 3016 3021 3025 3029 3032 3035 3037 3039 3038 3039 3042 3044 3044 3047 3048 3048 3047 3046 3046 3044 3042 3039 3035 3031
2965 2967 2968 2969 2971 2973 2975 2976 2977 2980 2981 2983 2985 2987 2989 2990 2993 2998 3003 3008 3013 3017 3020 3023 3025 3028 3029 3031 3032 3034 3036 3038 3039 3040 3039 3039 3039 3037 3034 3032 3029 3025 3022
2952 2955 2957 2959 2961 2963 2966 2967 2969 2971 2974 2976 2978 2980 2982 2985 2988 2992 2996 3000 3004 3008 3012 3015 3018 3019 3021 3023 3024 3027 3029 3030 3031 3032 3032 3031 3029 3028 3026 3023 3020 3017 3014
2940 2940 2944 2947 2949 2951 2954 2957 2960 2962 2965 2967 2970 2973 2976 2978 2980 2984 2989 2991 2995 3000 3004 3007 3009 3012 3014 3015 3017 3019 3020 3022 3023 3022 3022 3021 3021 3019 3018 3013 3011 3009 3007
2929 2928 2930 2933 2936 2940 2941 2944 2949 2952 2954 2956 2959 2962 2965 2970 2973 2977 2980 2984 2988 2992 2994 2997 3000 3003 3004 3005 3008 3010 3012 3012 3013 3013 3013 3012 3012 3010 3007 3004 3004 3002 3001
2917 2918 2918 2920 2923 2927 2929 2932 2935 2938 2941 2944 2947 2951 2955 2959 2962 2967 2971 2974 2977 2981 2984 2987 2990 2993 2995 2997 2999 3001 3002 3003 3003 3003 3003 3003 3003 3000 2999 2999 2999 2997 2996
2907 2907 2906 2907 2909 2914 2914 2917 2922 2925 2927 2931 2936 2940 2943 2948 2952 2955 2959 2963 2966 2969 2975 2978 2981 2983 2986 2988 2991 2992 2993 2994 2994 2994 2994 2995 2994 2993 2993 2993 2993 2991 2989
2896 2897 2896 2894 2895 2901 2902 2904 2910 2911 2913 2918 2923 2928 2933 2936 2940 2944 2948 2952 2956 2959 2964 2968 2970 2974 2977 2980 2981 2982 2984 2985 2985 2985 2988 2986 2986 2986 2986 2986 2986 2985 2983
2884 2883 2883 2882 2882 2886 2888 2891 2896 2897 2900 2904 2909 2915 2921 2925 2929 2932 2935 2941 2946 2950 2954 2958 2961 2966 2968 2970 2971 2973 2974 2974 2978 2979 2978 2978 2979 2979 2980 2980 2980 2979 2978
2870 2870 2867 2867 2868 2870 2870 2875 2879 2883 2887 2891 2894 2900 2907 2913 2918 2922 2925 2931 2939 2942 2947 2949 2953 2956 2958 2961 2962 2964 2966 2969 2970 2970 2971 2971 2972 2973 2974 2974 2974 2974 2973
2856 2853 2851 2849 2851 2853 2854 2859 2865 2869 2873 2877 2880 2886 2894 2901 2906 2912 2915 2920 2927 2932 2930 2939 2941 2944 2947 2950 2952 2955 2960 2962 2962 2963 2965 2966 2966 2968 2969 2969 2969 2969 2970
Wind_Speed
38 37 36 36 34 34 34 34 40 36 37 34 32 31 26 21 18 20 21 19 21 22 22 22 22 22 20 19 19 20 19 17 17 18 17 18 17 17 19 20 22 23 25
43 43 41 40 39 38 37 38 40 41 39 37 34 34 32 30 26 25 24 22 24 24 24 24 24 24 22 21 21 20 19 19 20 21 21 22 21 21 22 24 25 24 25
42 40 43 44 43 43 43 42 42 43 43 41 40 40 39 37 32 31 27 19 27 26 24 25 26 26 25 23 23 24 23 23 23 24 26 26 25 24 24 24 25 26 27
42 42 42 44 43 42 41 43 43 46 44 43 38 34 38 37 29 30 32 20 19 25 24 25 27 27 27 26 27 27 27 27 27 28 28 28 27 27 27 24 20 25 28
39 39 36 37 39 36 38 40 42 43 42 42 41 34 34 35 34 32 33 25 22 25 26 27 26 28 30 30 31 31 30 31 31 31 31 29 29 28 30 27 25 27 28
40 37 35 34 39 37 34 32 36 39 39 41 39 38 33 35 37 33 33 29 26 28 27 27 27 26 28 31 34 35 36 35 35 33 30 31 30 33 30 31 32 32 31
42 42 39 35 30 30 36 34 31 36 40 42 41 37 36 36 35 34 32 32 31 30 28 27 24 24 25 27 30 32 34 37 40 36 32 26 28 28 30 32 34 36 37
20 30 37 35 35 33 31 38 37 36 32 36 39 40 40 37 37 39 36 35 34 34 29 28 26 26 29 30 28 28 30 34 37 32 28 30 28 29 29 32 34 39 43
33 31 23 24 35 36 35 38 42 40 40 39 35 35 37 37 34 38 40 38 37 38 34 32 30 30 31 31 29 30 33 33 29 32 26 30 30 30 30 31 35 39 44
41 40 34 28 27 31 36 39 42 45 43 43 42 38 36 33 33 33 38 43 42 38 37 36 34 31 32 31 31 34 30 33 26 29 29 29 30 29 30 32 36 39 43
21 22 24 31 34 32 35 37 39 41 44 47 45 47 45 40 39 37 36 36 40 38 37 34 31 31 31 31 34 31 28 27 29 29 28 30 30 30 30 33 38 40 44
31 31 26 24 22 33 43 43 42 42 39 42 46 44 45 46 44 42 40 44 39 37 35 31 30 30 30 34 32 30 30 22 28 27 31 29 35 33 32 36 39 40 44
21 25 27 29 32 32 30 33 36 35 32 29 36 36 38 37 42 46 45 43 39 35 30 28 27 27 27 30 31 26 35 30 24 28 28 32 33 34 35 37 40 41 44
23 20 22 25 26 27 30 29 29 34 33 26 26 36 38 34 39 39 39 38 35 28 27 27 25 23 26 27 30 26 28 28 25 31 31 33 32 34 37 39 41 41 42
26 25 27 26 29 33 30 30 30 33 34 33 27 31 36 39 42 39 39 36 29 29 27 25 22 22 23 25 26 30 29 26 30 31 34 35 36 38 39 40 40 42 42
31 30 29 27 25 29 34 34 31 28 28 27 29 26 30 33 34 34 33 31 28 28 26 25 24 24 23 27 23 32 30 28 28 31 34 33 36 41 40 41 43 43 38
26 30 34 31 31 31 27 27 27 27 25 22 26 28 25 27 30 31 32 32 28 27 28 27 26 25 22 22 23 27 31 29 29 29 36 33 40 41 43 44 40 39 31
29 28 31 37 35 34 34 32 29 27 30 27 24 24 26 24 28 30 31 31 31 30 28 29 28 26 23 23 24 28 25 29 29 27 32 40 40 39 43 39 41 32 27
34 33 29 30 34 33 36 33 33 30 31 37 35 29 22 18 19 31 34 33 31 30 30 31 30 28 23 23 25 23 27 27 28 35 34 35 38 41 41 41 30 28 24
33 35 35 33 34 33 35 36 35 33 34 33 38 39 35 30 23 21 25 29 29 31 33 33 30 28 25 24 25 20 23 31 33 31 34 36 39 40 37 24 24 23 22
34 35 36 37 38 36 35 34 34 37 39 37 34 35 43 42 37 33 30 32 33 35 34 34 32 30 27 25 23 24 27 28 30 32 35 37 37 33 23 22 21 21 20
36 35 35 37 41 39 40 38 35 42 46 44 36 31 32 34 44 44 38 39 36 35 36 35 34 34 30 28 27 27 30 32 35 36 39 37 29 22 20 20 19 18 19
40 36 37 39 39 38 43 44 38 40 46 47 42 37 34 32 33 32 40 41 38 37 38 37 35 35 31 30 30 32 35 36 39 41 33 28 20 19 17 18 19 19 19
43 42 40 41 39 37 40 43 45 46 46 47 48 50 45 40 36 37 38 35 38 40 37 35 34 35 33 35 34 36 38 43 35 30 30 20 17 16 17 18 18 19 19
45 44 47 45 45 42 41 40 43 47 48 49 50 50 49 44 39 38 29 25 35 36 35 32 31 32 34 35 37 40 40 32 30 28 22 21 17 16 16 17 17 17 17
49 53 54 55 51 43 42 37 40 50 49 52 51 50 48 43 41 40 32 30 32 32 42 38 38 40 37 35 39 32 25 26 24 22 19 17 14 14 15 15 17 16 14
Wind_Direction
223 222 222 223 225 226 226 230 231 232 233 233 238 242 244 256 254 263 272 265 258 256 253 253 254 257 259 257 253 251 254 255 256 260 266 270 276 277 280 283 287 289 288
232 226 225 224 228 230 233 235 234 234 236 237 240 244 243 246 251 259 264 261 254 256 254 252 253 256 257 254 254 255 254 256 259 265 269 274 277 279 284 288 289 290 294
236 233 231 234 234 237 241 243 242 239 235 236 241 246 246 243 243 252 255 275 255 254 257 255 251 253 256 255 254 255 256 257 262 267 272 278 282 284 288 293 289 288 291
239 239 236 235 237 240 243 245 244 239 238 235 236 244 245 246 248 254 253 257 258 255 255 254 253 253 256 257 257 257 259 262 266 268 272 276 282 286 292 294 292 292 295
247 244 246 246 244 242 242 244 243 238 242 242 240 242 244 244 245 248 248 248 247 249 248 250 252 253 255 257 258 260 261 262 264 268 271 275 285 286 292 293 293 295 296
253 249 245 248 244 244 240 244 242 239 240 237 237 241 242 245 242 241 245 248 243 246 247 249 253 255 257 260 261 264 265 266 266 265 264 272 281 285 284 296 296 297 298
257 253 250 249 248 246 239 239 239 243 242 242 244 245 244 243 238 233 239 250 248 248 248 251 252 254 258 258 258 262 267 268 266 264 266 266 282 279 289 291 294 298 299
262 251 249 245 243 245 245 240 240 238 241 240 241 244 246 242 238 238 238 246 250 251 244 243 246 259 267 264 266 265 264 267 267 264 267 274 280 277 287 291 295 299 302
265 263 257 254 246 242 242 242 242 244 247 243 240 239 239 242 246 247 240 238 241 251 243 238 246 262 267 265 265 267 265 261 267 261 267 266 278 279 286 289 294 299 305
257 259 253 241 233 232 235 238 242 245 248 249 246 244 243 241 243 246 246 242 240 250 239 243 248 258 261 265 267 268 267 267 261 254 259 269 274 280 284 289 294 299 307
247 247 254 248 233 237 241 236 238 243 248 253 254 253 249 250 249 253 255 254 245 243 236 241 246 252 260 269 272 266 266 249 258 251 270 275 278 283 284 290 297 303 308
260 256 245 235 241 243 241 247 254 254 254 258 255 253 248 250 246 252 258 250 238 231 232 239 241 250 262 272 270 266 252 250 266 258 265 277 282 283 285 290 297 306 309
249 255 253 252 250 249 250 248 246 247 246 257 256 248 246 245 243 243 244 245 228 223 227 236 239 251 263 274 263 249 249 239 264 262 268 277 280 282 286 293 299 305 310
248 251 255 252 248 247 245 245 249 249 242 249 249 242 235 243 236 237 241 223 214 218 225 229 237 250 262 265 251 265 249 259 252 272 270 274 281 283 287 293 299 306 311
270 255 248 247 250 252 259 259 256 255 258 261 263 241 237 232 231 231 222 211 209 218 223 231 239 246 260 253 240 242 260 246 268 268 268 277 284 286 289 294 299 307 308
284 281 265 256 256 252 252 255 254 255 258 259 262 251 236 227 220 211 208 207 212 218 229 233 240 250 258 243 243 241 260 268 258 270 276 277 285 282 289 296 302 306 300
275 277 278 275 273 264 263 261 253 249 236 240 247 251 243 224 208 208 210 213 218 226 231 234 244 249 246 243 238 246 251 262 264 277 273 281 281 283 288 296 302 300 289
271 254 262 270 271 274 268 261 260 262 249 241 243 244 247 237 221 216 222 224 226 231 235 240 244 245 243 240 235 245 253 256 276 274 276 275 282 290 296 297 300 284 288
273 270 251 248 264 263 267 266 255 255 256 249 244 244 234 225 223 228 232 228 226 232 237 239 239 244 244 237 242 249 256 265 267 267 276 282 286 290 297 300 284 283 287
270 270 266 250 241 250 249 256 259 249 249 247 246 237 234 231 226 221 226 224 228 236 239 242 238 239 238 236 240 248 261 259 266 272 274 278 282 293 296 280 281 281 286
275 275 268 260 248 241 242 243 243 245 242 243 243 242 237 235 229 232 230 232 235 237 239 240 236 238 242 242 242 251 258 262 266 269 270 275 286 292 278 278 278 282 288
275 280 274 272 266 252 244 233 236 238 237 237 235 237 238 239 240 239 238 239 233 235 239 239 241 241 243 242 244 260 261 260 265 266 267 280 288 275 272 275 277 283 290
279 279 276 276 275 268 255 240 228 237 241 235 235 237 237 237 238 239 238 236 236 232 233 235 239 239 240 246 256 257 259 262 260 265 283 282 265 259 266 274 280 285 290
280 281 279 273 274 270 260 252 234 230 233 234 232 240 241 237 236 235 227 233 236 229 228 232 240 238 242 244 248 255 259 260 271 277 275 250 246 259 265 272 280 286 289
277 279 279 277 273 273 259 252 241 231 230 234 236 236 237 236 233 231 220 227 231 226 235 236 241 241 244 244 247 254 261 271 271 273 249 245 250 258 262 271 278 284 286
281 281 278 277 273 268 258 251 241 232 231 236 242 237 238 236 231 228 220 213 229 247 233 227 231 234 242 247 251 257 265 266 268 254 242 250 249 255 266 274 277 279 283